This is the latest recevied weather packets stored in our database for station/object YT6PT-8. If no packets are shown the sender has not sent any weather packets the latest 10 day(s).
| Time | Temp. | Humidity | Pressure | Rain* | Wind** | Luminosity | Snow |
|---|---|---|---|---|---|---|---|
| 1787929237 | 28.89° C | 46% | 1009.4 hPa | 0 mm | 0.89 m/s, 0° | - | - |
| 1787928933 | 28.89° C | 46% | 1009.2 hPa | 0 mm | 1.34 m/s, 0° | - | - |
| 1787928644 | 28.89° C | 46% | 1009.2 hPa | 0 mm | 1.34 m/s, 0° | - | - |
| 1787928333 | 28.33° C | 46% | 1009.4 hPa | 0 mm | 2.24 m/s, 338° | - | - |
| 1787928034 | 28.33° C | 46% | 1009.4 hPa | 0 mm | 2.24 m/s, 338° | - | - |
| 1787927733 | 28.33° C | 46% | 1009.4 hPa | 0 mm | 2.24 m/s, 338° | - | - |
| 1787927455 | 28.33° C | 46% | 1009.4 hPa | 0 mm | 2.24 m/s, 338° | - | - |
| 1787927152 | 28.33° C | 46% | 1009.5 hPa | 0 mm | 1.79 m/s, 0° | - | - |
| 1787926554 | 28.89° C | 46% | 1009.7 hPa | 0 mm | 1.34 m/s, 0° | - | - |
| 1787926240 | 28.89° C | 46% | 1009.7 hPa | 0 mm | 1.34 m/s, 0° | - | - |
| 1787925932 | 28.89° C | 46% | 1009.7 hPa | 0 mm | 3.13 m/s, 338° | - | - |
| 1787925638 | 28.89° C | 46% | 1009.7 hPa | 0 mm | 3.13 m/s, 338° | - | - |
| 1787925332 | 28.89° C | 46% | 1009.6 hPa | 0 mm | 2.68 m/s, 0° | - | - |
| 1787925034 | 28.89° C | 46% | 1009.6 hPa | 0 mm | 2.68 m/s, 0° | - | - |
| 1787924732 | 28.89° C | 45% | 1009.5 hPa | 0 mm | 3.13 m/s, 338° | - | - |
| 1787924433 | 28.89° C | 45% | 1009.5 hPa | 0 mm | 3.13 m/s, 338° | - | - |
| 1787924155 | 28.89° C | 46% | 1009.5 hPa | 0 mm | 1.79 m/s, 338° | - | - |
| 1787923858 | 28.89° C | 46% | 1009.5 hPa | 0 mm | 1.79 m/s, 338° | - | - |
| 1787923533 | 28.89° C | 45% | 1009.5 hPa | 0 mm | 0 m/s | - | - |
| 1787923232 | 28.89° C | 45% | 1009.5 hPa | 0 mm | 0 m/s | - | - |
| 1787922933 | 28.89° C | 45% | 1009.6 hPa | 0 mm | 1.34 m/s, 0° | - | - |
| 1787922634 | 28.89° C | 45% | 1009.6 hPa | 0 mm | 1.34 m/s, 0° | - | - |
| 1787922333 | 28.89° C | 46% | 1009.6 hPa | 0 mm | 2.68 m/s, 0° | - | - |
| 1787922060 | 28.89° C | 46% | 1009.6 hPa | 0 mm | 2.68 m/s, 0° | - | - |
| 1787921751 | 28.89° C | 45% | 1009.8 hPa | 0 mm | 2.68 m/s, 0° | - | - |
* Rain latest hour (hover to see other rain measurements)
** Current wind speed in m/s (hover to see current wind gust speed)